カタログに戻る

STARLINK-38267

運用中通信SSO
NORAD 100301·PAYLOAD·🇺🇸 United States

打ち上げ Aug 12, 2026 から Vandenberg Space Force Base

Loading…

次のパス (今後24時間)

TLE

最新Source: Space-Track

元期: Sep 14, 2026, 14:57 UTC

1 A0301U 26184A   26257.62357268  .00022287  00000-0  61740-3 0  9998
2 A0301  97.2836 122.8831 0002451  87.3052 272.8473 15.36974191  6468

AllMySatでSTARLINK-38267をリアルタイム追跡

Download on the App Store